Find Starlink 4477

NORAD ID: 53546 Int'l Des: 2022-101 Owner: SPXS Country: US Constellation: starlink operational
LEOCIRCULAR

リアルタイム位置

3D地球を読み込み中...

Starlink 4477について

説明を読み込み中...

次回通過

Passes for default location (London). Set your location on the main map for personalized predictions.

高度履歴

Loading altitude history...

軌道要素

1 53546U 22101V 26123.41836278 -.00000455 00000-0 -10541-4 0 9993
2 53546 53.2172 167.9651 0000787 94.9474 265.1608 15.08812542204717
Epoch: May 3, 2026 • Age: 11 hours

現在のステータス

高度 545.2 km
速度 7.60 km/s
衛星直下点 50.31°N, 45.26°E
打ち上げ日 Aug 19, 2022
運用期間 3.7 years
タイプ internet

技術仕様

分類 Payload
質量 300.00 kg
乾燥質量 290.00 kg
総質量 300.00 kg
長さ 0.20 m
直径 2.80 m
スパン 9.00 m
形状 Box + pan
製造者 SPXS
バスタイプ Starlink
フェーズステータス In Orbit
所有者/国 SPXS/US

Most Searched